QPF
0.05 0.05 0.03 0.03 0.05 0.06 0.08 0.11 0.13 0.13 0.14 0.14 0.13 0.12 0.11 0.09 0.09 0.08 0.06 0.06 0.06 0.06 0.07 0.09 0.10 0.10 0.11 0.09 0.10 0.12 0.12 0.12 0.14 0.15 0.15 0.12 0.10 0.09 0.08 0.08 0.07 0.07 0.08
0.03 0.05 0.04 0.05 0.04 0.05 0.07 0.10 0.13 0.13 0.16 0.19 0.20 0.18 0.14 0.09 0.08 0.07 0.08 0.07 0.07 0.07 0.07 0.09 0.09 0.09 0.11 0.11 0.11 0.12 0.11 0.11 0.13 0.15 0.16 0.13 0.12 0.10 0.07 0.08 0.08 0.08 0.09
0.02 0.03 0.05 0.08 0.08 0.07 0.08 0.09 0.12 0.11 0.12 0.15 0.18 0.16 0.13 0.11 0.10 0.09 0.10 0.11 0.10 0.08 0.08 0.08 0.06 0.05 0.07 0.09 0.10 0.11 0.12 0.12 0.14 0.16 0.16 0.14 0.14 0.13 0.10 0.08 0.08 0.09 0.10
0.03 0.05 0.06 0.07 0.06 0.06 0.06 0.08 0.11 0.11 0.10 0.12 0.15 0.16 0.14 0.13 0.13 0.13 0.14 0.13 0.13 0.11 0.09 0.07 0.04 0.03 0.02 0.04 0.05 0.08 0.10 0.11 0.12 0.13 0.14 0.15 0.16 0.15 0.12 0.09 0.08 0.07 0.08
0.05 0.06 0.05 0.05 0.04 0.04 0.05 0.06 0.09 0.08 0.08 0.11 0.15 0.17 0.18 0.16 0.13 0.13 0.15 0.13 0.13 0.10 0.09 0.07 0.04 0.03 0.02 0.02 0.03 0.04 0.05 0.07 0.10 0.12 0.11 0.11 0.12 0.13 0.13 0.10 0.08 0.06 0.06
0.06 0.05 0.04 0.05 0.04 0.03 0.03 0.05 0.07 0.06 0.06 0.08 0.11 0.13 0.14 0.14 0.13 0.12 0.12 0.13 0.13 0.10 0.07 0.05 0.05 0.04 0.04 0.03 0.03 0.03 0.03 0.04 0.05 0.07 0.09 0.10 0.11 0.11 0.11 0.12 0.11 0.08 0.07
0.04 0.06 0.05 0.04 0.02 0.02 0.03 0.06 0.07 0.07 0.07 0.08 0.10 0.12 0.12 0.11 0.11 0.11 0.11 0.11 0.10 0.09 0.07 0.05 0.04 0.03 0.04 0.04 0.04 0.04 0.03 0.04 0.04 0.04 0.05 0.07 0.08 0.09 0.09 0.10 0.11 0.08 0.07
0.06 0.07 0.06 0.04 0.03 0.03 0.04 0.06 0.08 0.10 0.10 0.10 0.11 0.12 0.12 0.12 0.12 0.11 0.10 0.10 0.10 0.10 0.08 0.06 0.04 0.03 0.03 0.03 0.04 0.04 0.04 0.04 0.04 0.03 0.04 0.05 0.06 0.06 0.08 0.09 0.11 0.09 0.06
0.05 0.06 0.08 0.07 0.05 0.05 0.06 0.07 0.07 0.07 0.08 0.07 0.07 0.08 0.08 0.09 0.09 0.09 0.10 0.11 0.11 0.10 0.09 0.07 0.06 0.03 0.03 0.04 0.04 0.05 0.05 0.04 0.04 0.04 0.04 0.04 0.03 0.04 0.05 0.06 0.09 0.10 0.09
0.03 0.03 0.05 0.06 0.07 0.07 0.08 0.07 0.07 0.06 0.06 0.06 0.06 0.06 0.07 0.08 0.09 0.09 0.10 0.09 0.08 0.07 0.07 0.07 0.05 0.04 0.04 0.04 0.05 0.05 0.04 0.04 0.04 0.04 0.04 0.03 0.03 0.03 0.03 0.04 0.06 0.09 0.10
0.02 0.02 0.02 0.02 0.03 0.04 0.04 0.05 0.05 0.05 0.06 0.07 0.08 0.08 0.08 0.08 0.08 0.08 0.07 0.07 0.06 0.05 0.05 0.06 0.05 0.04 0.03 0.03 0.04 0.04 0.04 0.04 0.04 0.04 0.03 0.03 0.02 0.03 0.03 0.04 0.04 0.05 0.07
0.02 0.02 0.02 0.02 0.02 0.03 0.04 0.04 0.04 0.04 0.05 0.06 0.07 0.08 0.07 0.07 0.07 0.06 0.06 0.08 0.08 0.06 0.06 0.06 0.05 0.04 0.03 0.03 0.04 0.04 0.03 0.03 0.03 0.03 0.03 0.03 0.02 0.03 0.03 0.04 0.04 0.04 0.05
0.01 0.01 0.02 0.02 0.03 0.04 0.04 0.04 0.04 0.05 0.06 0.06 0.06 0.07 0.08 0.09 0.09 0.07 0.07 0.08 0.08 0.05 0.04 0.04 0.04 0.03 0.03 0.03 0.03 0.03 0.03 0.03 0.03 0.03 0.03 0.03 0.03 0.03 0.04 0.04 0.04 0.05 0.04
0.01 0.01 0.02 0.02 0.02 0.02 0.02 0.02 0.03 0.04 0.04 0.03 0.04 0.05 0.07 0.09 0.10 0.08 0.07 0.07 0.06 0.05 0.04 0.04 0.03 0.03 0.02 0.02 0.02 0.02 0.02 0.02 0.03 0.03 0.03 0.02 0.02 0.03 0.03 0.03 0.05 0.06 0.05
0.02 0.02 0.02 0.02 0.02 0.02 0.02 0.02 0.02 0.03 0.04 0.03 0.03 0.03 0.05 0.06 0.07 0.07 0.07 0.06 0.05 0.05 0.03 0.04 0.03 0.02 0.01 0.01 0.01 0.01 0.02 0.02 0.03 0.04 0.03 0.02 0.01 0.01 0.01 0.01 0.02 0.04 0.05
0.01 0.02 0.02 0.02 0.03 0.02 0.02 0.02 0.03 0.04 0.03 0.03 0.03 0.04 0.06 0.07 0.07 0.07 0.06 0.06 0.06 0.05 0.04 0.04 0.03 0.03 0.01 0.00 0.00 0.01 0.02 0.03 0.04 0.04 0.04 0.03 0.02 0.02 0.01 0.01 0.01 0.02 0.03
0.01 0.02 0.03 0.03 0.03 0.03 0.03 0.03 0.03 0.03 0.03 0.02 0.02 0.03 0.04 0.05 0.06 0.06 0.06 0.07 0.08 0.07 0.06 0.05 0.04 0.03 0.03 0.01 0.00 0.01 0.02 0.04 0.04 0.05 0.05 0.03 0.02 0.02 0.03 0.03 0.02 0.02 0.01
0.02 0.03 0.04 0.04 0.04 0.03 0.03 0.02 0.03 0.04 0.03 0.02 0.02 0.02 0.03 0.03 0.04 0.05 0.06 0.08 0.08 0.09 0.08 0.06 0.05 0.05 0.03 0.01 0.00 0.01 0.03 0.06 0.06 0.05 0.05 0.05 0.04 0.03 0.03 0.04 0.04 0.05 0.04
0.02 0.03 0.04 0.04 0.04 0.04 0.04 0.03 0.03 0.04 0.03 0.02 0.02 0.03 0.03 0.04 0.05 0.06 0.07 0.08 0.08 0.08 0.07 0.06 0.06 0.07 0.05 0.02 0.01 0.01 0.04 0.07 0.06 0.04 0.02 0.03 0.03 0.02 0.02 0.03 0.05 0.05 0.05
0.01 0.02 0.02 0.03 0.06 0.06 0.05 0.05 0.05 0.05 0.04 0.03 0.03 0.03 0.03 0.04 0.04 0.04 0.05 0.06 0.07 0.08 0.07 0.06 0.07 0.07 0.06 0.03 0.01 0.01 0.05 0.07 0.07 0.05 0.04 0.02 0.01 0.02 0.02 0.03 0.04 0.05 0.05
0.01 0.01 0.00 0.02 0.04 0.06 0.07 0.08 0.05 0.04 0.05 0.05 0.05 0.05 0.04 0.04 0.05 0.05 0.05 0.06 0.07 0.08 0.08 0.07 0.07 0.06 0.05 0.03 0.01 0.01 0.03 0.05 0.06 0.05 0.04 0.02 0.01 0.01 0.01 0.01 0.03 0.03 0.02
0.01 0.00 0.01 0.01 0.02 0.03 0.05 0.07 0.06 0.04 0.04 0.05 0.07 0.07 0.06 0.05 0.05 0.07 0.08 0.08 0.09 0.08 0.07 0.07 0.06 0.06 0.04 0.02 0.01 0.01 0.01 0.02 0.04 0.03 0.02 0.01 0.00 0.00 0.00 0.01 0.01 0.01 0.02
0.01 0.01 0.01 0.01 0.01 0.02 0.03 0.04 0.05 0.05 0.05 0.05 0.04 0.04 0.03 0.04 0.05 0.06 0.07 0.06 0.05 0.05 0.04 0.04 0.03 0.03 0.03 0.02 0.01 0.00 0.01 0.01 0.02 0.02 0.01 0.00 0.00 0.01 0.01 0.01 0.01 0.02 0.03
0.01 0.01 0.02 0.01 0.01 0.02 0.02 0.03 0.04 0.04 0.05 0.05 0.04 0.02 0.02 0.03 0.03 0.03 0.03 0.03 0.03 0.04 0.04 0.03 0.03 0.02 0.02 0.03 0.02 0.01 0.01 0.01 0.02 0.02 0.01 0.01 0.01 0.01 0.02 0.02 0.01 0.02 0.03
0.01 0.01 0.02 0.02 0.02 0.03 0.03 0.03 0.03 0.03 0.04 0.05 0.04 0.03 0.03 0.03 0.02 0.02 0.02 0.02 0.02 0.02 0.02 0.02 0.02 0.02 0.02 0.01 0.00 0.01 0.01 0.02 0.01 0.02 0.03 0.04 0.04 0.04 0.04 0.04 0.04 0.04 0.04
0.02 0.02 0.02 0.01 0.01 0.02 0.02 0.02 0.02 0.02 0.03 0.03 0.04 0.04 0.03 0.03 0.02 0.02 0.01 0.01 0.01 0.01 0.01 0.00 0.00 0.00 0.00 0.00 0.00 0.00 0.00 0.00 0.01 0.01 0.03 0.04 0.04 0.04 0.04 0.03 0.03 0.04 0.04
MSLP
1009.39 1009.68 1009.94 1010.14 1010.30 1010.45 1010.59 1010.75 1010.93 1011.14 1011.37 1011.61 1011.85 1012.09 1012.32 1012.55 1012.79 1013.05 1013.33 1013.62 1013.92 1014.19 1014.42 1014.57 1014.62 1014.58 1014.46 1014.30 1014.14 1014.03 1014.01 1014.13 1014.37 1014.72 1015.14 1015.56 1015.92 1016.18 1016.29 1016.26 1016.11 1015.90 1015.69
1010.01 1010.23 1010.37 1010.44 1010.45 1010.44 1010.46 1010.51 1010.62 1010.78 1010.99 1011.22 1011.45 1011.66 1011.85 1012.02 1012.20 1012.39 1012.63 1012.90 1013.21 1013.53 1013.82 1014.05 1014.18 1014.20 1014.11 1013.95 1013.77 1013.62 1013.57 1013.65 1013.89 1014.26 1014.72 1015.21 1015.66 1016.00 1016.20 1016.23 1016.12 1015.93 1015.72
1010.96 1011.11 1011.14 1011.07 1010.94 1010.78 1010.65 1010.58 1010.60 1010.70 1010.86 1011.05 1011.25 1011.42 1011.56 1011.67 1011.77 1011.89 1012.07 1012.30 1012.60 1012.93 1013.26 1013.53 1013.71 1013.76 1013.70 1013.54 1013.34 1013.16 1013.06 1013.11 1013.33 1013.71 1014.21 1014.76 1015.29 1015.73 1016.01 1016.12 1016.08 1015.93 1015.74
1012.15 1012.25 1012.21 1012.04 1011.78 1011.49 1011.23 1011.05 1010.96 1010.98 1011.09 1011.23 1011.38 1011.51 1011.59 1011.63 1011.66 1011.70 1011.79 1011.96 1012.21 1012.51 1012.83 1013.11 1013.30 1013.37 1013.31 1013.14 1012.92 1012.70 1012.58 1012.60 1012.79 1013.17 1013.69 1014.28 1014.87 1015.38 1015.74 1015.93 1015.96 1015.87 1015.72
1013.44 1013.54 1013.47 1013.24 1012.91 1012.53 1012.18 1011.89 1011.72 1011.66 1011.70 1011.79 1011.90 1011.97 1012.00 1011.97 1011.92 1011.88 1011.88 1011.96 1012.13 1012.36 1012.62 1012.85 1013.02 1013.07 1013.00 1012.81 1012.57 1012.34 1012.18 1012.17 1012.35 1012.70 1013.22 1013.82 1014.44 1014.99 1015.41 1015.67 1015.76 1015.73 1015.63
1014.69 1014.82 1014.77 1014.55 1014.20 1013.78 1013.37 1013.02 1012.78 1012.65 1012.63 1012.67 1012.73 1012.76 1012.74 1012.66 1012.54 1012.41 1012.32 1012.29 1012.35 1012.47 1012.64 1012.80 1012.90 1012.91 1012.81 1012.61 1012.35 1012.10 1011.93 1011.89 1012.04 1012.37 1012.85 1013.43 1014.04 1014.60 1015.05 1015.34 1015.48 1015.50 1015.46
1015.77 1015.96 1015.98 1015.80 1015.48 1015.08 1014.65 1014.27 1013.98 1013.81 1013.73 1013.73 1013.74 1013.74 1013.68 1013.55 1013.37 1013.18 1012.99 1012.86 1012.80 1012.81 1012.87 1012.93 1012.95 1012.90 1012.76 1012.55 1012.28 1012.03 1011.84 1011.78 1011.89 1012.17 1012.61 1013.14 1013.70 1014.23 1014.66 1014.97 1015.14 1015.20 1015.20
1016.58 1016.85 1016.95 1016.86 1016.61 1016.25 1015.84 1015.45 1015.14 1014.93 1014.82 1014.77 1014.75 1014.72 1014.63 1014.48 1014.27 1014.02 1013.76 1013.55 1013.38 1013.28 1013.22 1013.18 1013.12 1013.02 1012.85 1012.62 1012.35 1012.10 1011.91 1011.84 1011.91 1012.13 1012.49 1012.95 1013.44 1013.90 1014.30 1014.58 1014.76 1014.86 1014.91
1017.09 1017.43 1017.62 1017.62 1017.46 1017.16 1016.80 1016.42 1016.10 1015.87 1015.72 1015.64 1015.59 1015.53 1015.43 1015.27 1015.05 1014.77 1014.48 1014.20 1013.96 1013.77 1013.63 1013.50 1013.38 1013.23 1013.04 1012.80 1012.55 1012.31 1012.12 1012.03 1012.06 1012.22 1012.50 1012.86 1013.26 1013.64 1013.97 1014.23 1014.40 1014.52 1014.61
1017.31 1017.71 1017.98 1018.07 1017.98 1017.76 1017.44 1017.09 1016.77 1016.51 1016.33 1016.22 1016.14 1016.07 1015.97 1015.82 1015.60 1015.33 1015.04 1014.74 1014.46 1014.23 1014.03 1013.86 1013.69 1013.51 1013.31 1013.09 1012.85 1012.62 1012.44 1012.34 1012.33 1012.43 1012.62 1012.88 1013.18 1013.47 1013.73 1013.94 1014.11 1014.23 1014.36
1017.30 1017.75 1018.07 1018.22 1018.20 1018.03 1017.75 1017.43 1017.11 1016.83 1016.63 1016.48 1016.39 1016.31 1016.21 1016.07 1015.88 1015.65 1015.38 1015.10 1014.84 1014.60 1014.39 1014.20 1014.03 1013.85 1013.66 1013.45 1013.23 1013.03 1012.85 1012.73 1012.68 1012.72 1012.83 1012.99 1013.19 1013.40 1013.59 1013.76 1013.90 1014.03 1014.18
1017.17 1017.63 1017.98 1018.17 1018.19 1018.06 1017.82 1017.51 1017.19 1016.91 1016.68 1016.51 1016.39 1016.30 1016.21 1016.10 1015.95 1015.76 1015.55 1015.32 1015.09 1014.89 1014.70 1014.53 1014.38 1014.22 1014.05 1013.86 1013.67 1013.48 1013.30 1013.16 1013.08 1013.06 1013.09 1013.17 1013.29 1013.42 1013.55 1013.67 1013.79 1013.92 1014.07
1017.02 1017.47 1017.82 1018.02 1018.06 1017.95 1017.73 1017.44 1017.13 1016.84 1016.59 1016.40 1016.27 1016.17 1016.08 1015.99 1015.88 1015.74 1015.59 1015.42 1015.26 1015.11 1014.97 1014.85 1014.72 1014.60 1014.45 1014.29 1014.11 1013.93 1013.75 1013.60 1013.48 1013.40 1013.37 1013.39 1013.43 1013.50 1013.59 1013.68 1013.78 1013.89 1014.03
1016.91 1017.33 1017.65 1017.84 1017.88 1017.79 1017.58 1017.31 1017.01 1016.72 1016.47 1016.27 1016.12 1016.01 1015.93 1015.85 1015.77 1015.68 1015.58 1015.47 1015.37 1015.28 1015.20 1015.12 1015.04 1014.95 1014.83 1014.69 1014.53 1014.34 1014.16 1013.98 1013.83 1013.71 1013.64 1013.60 1013.60 1013.62 1013.67 1013.73 1013.81 1013.91 1014.04
1016.87 1017.25 1017.53 1017.69 1017.72 1017.62 1017.43 1017.18 1016.90 1016.63 1016.39 1016.19 1016.03 1015.92 1015.83 1015.75 1015.68 1015.62 1015.56 1015.50 1015.45 1015.41 1015.38 1015.34 1015.30 1015.24 1015.14 1015.02 1014.86 1014.67 1014.47 1014.28 1014.10 1013.96 1013.85 1013.77 1013.74 1013.74 1013.77 1013.81 1013.87 1013.96 1014.05
1016.91 1017.23 1017.46 1017.57 1017.57 1017.48 1017.30 1017.07 1016.83 1016.58 1016.36 1016.18 1016.02 1015.90 1015.80 1015.72 1015.65 1015.59 1015.54 1015.51 1015.49 1015.48 1015.49 1015.48 1015.47 1015.43 1015.35 1015.23 1015.07 1014.89 1014.68 1014.47 1014.28 1014.11 1013.98 1013.89 1013.85 1013.83 1013.84 1013.88 1013.93 1013.99 1014.06
1016.97 1017.23 1017.40 1017.46 1017.44 1017.33 1017.17 1016.98 1016.77 1016.57 1016.38 1016.22 1016.08 1015.95 1015.84 1015.75 1015.66 1015.59 1015.54 1015.50 1015.49 1015.50 1015.51 1015.53 1015.53 1015.50 1015.44 1015.33 1015.18 1014.99 1014.78 1014.57 1014.37 1014.19 1014.06 1013.96 1013.90 1013.88 1013.89 1013.91 1013.95 1013.99 1014.04
1017.01 1017.21 1017.31 1017.33 1017.27 1017.16 1017.01 1016.85 1016.69 1016.54 1016.40 1016.27 1016.15 1016.03 1015.91 1015.80 1015.69 1015.60 1015.52 1015.47 1015.45 1015.45 1015.47 1015.49 1015.50 1015.49 1015.43 1015.34 1015.19 1015.02 1014.81 1014.60 1014.40 1014.23 1014.09 1013.99 1013.93 1013.90 1013.90 1013.92 1013.94 1013.97 1013.99
1016.98 1017.12 1017.17 1017.14 1017.06 1016.94 1016.81 1016.69 1016.57 1016.47 1016.38 1016.29 1016.20 1016.09 1015.98 1015.85 1015.72 1015.60 1015.50 1015.43 1015.39 1015.37 1015.39 1015.41 1015.43 1015.43 1015.39 1015.31 1015.19 1015.02 1014.84 1014.63 1014.44 1014.26 1014.12 1014.02 1013.95 1013.91 1013.90 1013.90 1013.90 1013.91 1013.91
1016.87 1016.97 1016.97 1016.91 1016.81 1016.69 1016.58 1016.49 1016.42 1016.37 1016.32 1016.28 1016.22 1016.14 1016.03 1015.90 1015.76 1015.62 1015.50 1015.40 1015.34 1015.32 1015.33 1015.35 1015.38 1015.39 1015.38 1015.32 1015.22 1015.08 1014.91 1014.72 1014.53 1014.35 1014.20 1014.07 1013.98 1013.92 1013.88 1013.86 1013.84 1013.82 1013.80
1016.69 1016.75 1016.73 1016.66 1016.55 1016.45 1016.35 1016.29 1016.26 1016.25 1016.25 1016.25 1016.23 1016.17 1016.08 1015.96 1015.82 1015.67 1015.54 1015.43 1015.36 1015.33 1015.33 1015.36 1015.41 1015.44 1015.45 1015.42 1015.35 1015.23 1015.08 1014.90 1014.70 1014.51 1014.33 1014.17 1014.05 1013.94 1013.86 1013.80 1013.75 1013.70 1013.65
1016.45 1016.52 1016.50 1016.43 1016.34 1016.25 1016.18 1016.15 1016.15 1016.18 1016.21 1016.24 1016.25 1016.22 1016.16 1016.05 1015.92 1015.78 1015.64 1015.53 1015.45 1015.42 1015.43 1015.48 1015.54 1015.59 1015.63 1015.63 1015.58 1015.48 1015.34 1015.15 1014.94 1014.72 1014.50 1014.30 1014.11 1013.95 1013.82 1013.71 1013.61 1013.52 1013.45
1016.20 1016.30 1016.31 1016.27 1016.21 1016.14 1016.10 1016.10 1016.12 1016.17 1016.23 1016.29 1016.32 1016.32 1016.27 1016.18 1016.06 1015.93 1015.80 1015.69 1015.63 1015.60 1015.62 1015.67 1015.75 1015.83 1015.88 1015.90 1015.87 1015.78 1015.64 1015.44 1015.20 1014.94 1014.66 1014.40 1014.15 1013.92 1013.72 1013.55 1013.41 1013.29 1013.19
1015.98 1016.11 1016.18 1016.18 1016.16 1016.14 1016.12 1016.14 1016.18 1016.25 1016.32 1016.39 1016.43 1016.43 1016.40 1016.33 1016.22 1016.10 1015.98 1015.88 1015.82 1015.80 1015.83 1015.89 1015.98 1016.06 1016.13 1016.17 1016.14 1016.05 1015.89 1015.67 1015.39 1015.08 1014.75 1014.42 1014.10 1013.80 1013.54 1013.32 1013.13 1012.98 1012.87
1015.79 1015.98 1016.09 1016.15 1016.18 1016.20 1016.21 1016.25 1016.30 1016.36 1016.43 1016.49 1016.53 1016.54 1016.51 1016.44 1016.34 1016.23 1016.12 1016.02 1015.96 1015.95 1015.97 1016.04 1016.12 1016.21 1016.28 1016.31 1016.28 1016.18 1016.00 1015.74 1015.43 1015.07 1014.68 1014.29 1013.91 1013.56 1013.25 1012.99 1012.77 1012.60 1012.48
1015.62 1015.86 1016.03 1016.14 1016.21 1016.26 1016.30 1016.34 1016.39 1016.45 1016.50 1016.55 1016.57 1016.57 1016.53 1016.45 1016.35 1016.24 1016.13 1016.04 1015.97 1015.95 1015.97 1016.02 1016.09 1016.17 1016.23 1016.24 1016.19 1016.07 1015.87 1015.59 1015.24 1014.84 1014.42 1013.98 1013.56 1013.18 1012.84 1012.56 1012.33 1012.17 1012.05
Thickness
5753 5751 5748 5745 5741 5737 5732 5728 5724 5722 5719 5716 5712 5709 5707 5706 5705 5703 5700 5697 5695 5694 5692 5691 5690 5690 5689 5688 5688 5686 5685 5686 5687 5685 5685 5689 5693 5695 5695 5696 5696 5697 5697
5747 5743 5739 5737 5733 5728 5725 5721 5717 5715 5713 5711 5708 5706 5703 5701 5699 5697 5694 5691 5688 5686 5686 5684 5683 5682 5681 5680 5679 5678 5677 5678 5679 5676 5674 5675 5680 5684 5689 5689 5689 5690 5691
5740 5734 5731 5728 5725 5722 5719 5716 5713 5710 5707 5706 5703 5700 5697 5694 5691 5689 5686 5684 5682 5679 5678 5677 5676 5674 5673 5672 5671 5671 5669 5667 5669 5670 5666 5664 5665 5670 5677 5680 5682 5683 5684
5736 5729 5725 5721 5719 5716 5714 5710 5707 5704 5701 5699 5695 5691 5687 5683 5682 5681 5679 5676 5674 5673 5671 5669 5668 5666 5665 5664 5663 5663 5661 5660 5659 5661 5662 5661 5661 5658 5662 5669 5672 5675 5676
5729 5722 5719 5715 5714 5711 5708 5704 5700 5697 5695 5692 5688 5684 5680 5677 5675 5673 5670 5668 5667 5665 5664 5662 5661 5659 5657 5656 5655 5654 5653 5652 5651 5651 5652 5653 5655 5656 5653 5655 5660 5663 5668
5724 5719 5716 5712 5708 5705 5701 5697 5693 5688 5686 5683 5680 5676 5672 5669 5666 5663 5661 5660 5659 5658 5655 5655 5653 5651 5650 5648 5647 5646 5645 5644 5644 5643 5644 5644 5645 5646 5647 5648 5651 5653 5658
5719 5713 5709 5704 5700 5697 5694 5690 5685 5680 5677 5674 5671 5668 5664 5661 5658 5656 5654 5652 5650 5649 5647 5646 5644 5642 5642 5640 5639 5638 5638 5637 5636 5636 5637 5638 5639 5640 5640 5641 5643 5645 5649
5714 5707 5703 5698 5693 5689 5685 5681 5676 5672 5668 5665 5662 5659 5657 5654 5651 5649 5647 5644 5642 5640 5639 5637 5635 5634 5633 5632 5631 5631 5631 5631 5630 5630 5630 5630 5632 5634 5634 5635 5635 5636 5639
5706 5701 5695 5690 5685 5681 5677 5673 5669 5664 5661 5658 5654 5652 5649 5646 5643 5641 5639 5636 5633 5633 5631 5630 5627 5626 5625 5624 5623 5622 5622 5622 5622 5622 5622 5623 5624 5626 5627 5629 5629 5628 5628
5700 5694 5688 5683 5678 5674 5670 5666 5662 5657 5653 5650 5647 5645 5642 5639 5636 5634 5631 5629 5626 5625 5623 5621 5620 5618 5617 5616 5615 5615 5614 5614 5614 5614 5614 5615 5616 5617 5619 5620 5622 5624 5623
5692 5687 5682 5677 5672 5668 5663 5658 5653 5649 5646 5642 5639 5636 5633 5631 5630 5627 5624 5622 5619 5617 5615 5613 5612 5610 5609 5608 5608 5607 5607 5606 5606 5607 5607 5607 5608 5609 5610 5612 5614 5615 5617
5687 5683 5677 5670 5665 5660 5655 5650 5646 5643 5640 5636 5633 5629 5626 5624 5621 5619 5617 5615 5612 5610 5608 5606 5604 5603 5602 5601 5600 5599 5599 5598 5598 5598 5599 5600 5601 5602 5603 5603 5605 5607 5609
5682 5677 5670 5664 5658 5652 5648 5643 5640 5636 5634 5630 5625 5621 5618 5615 5612 5610 5608 5606 5604 5602 5601 5599 5597 5596 5595 5593 5592 5592 5592 5591 5590 5590 5591 5592 5592 5593 5594 5596 5597 5599 5602
5677 5671 5663 5657 5652 5647 5642 5637 5634 5631 5627 5623 5619 5614 5611 5608 5605 5603 5600 5598 5597 5595 5594 5593 5591 5590 5588 5587 5585 5585 5584 5584 5584 5584 5584 5584 5585 5585 5586 5588 5590 5592 5594
5670 5664 5657 5651 5646 5640 5636 5632 5628 5625 5621 5616 5612 5608 5605 5602 5600 5597 5594 5592 5591 5589 5588 5586 5585 5583 5581 5579 5577 5577 5578 5577 5577 5577 5577 5578 5578 5578 5579 5581 5582 5584 5586
5665 5660 5653 5647 5641 5636 5631 5627 5623 5619 5615 5610 5606 5603 5600 5597 5594 5592 5589 5587 5585 5583 5581 5580 5579 5577 5575 5571 5569 5569 5570 5571 5571 5571 5572 5572 5572 5573 5573 5574 5575 5577 5578
5662 5656 5649 5643 5637 5632 5627 5623 5619 5615 5610 5606 5602 5598 5595 5593 5590 5588 5585 5582 5579 5578 5576 5575 5573 5571 5568 5566 5565 5565 5564 5565 5566 5566 5567 5568 5569 5567 5567 5568 5570 5571 5572
5658 5651 5645 5639 5634 5629 5624 5620 5615 5611 5606 5602 5598 5595 5592 5589 5586 5583 5580 5577 5576 5574 5572 5571 5569 5567 5565 5563 5562 5560 5561 5562 5563 5563 5563 5562 5562 5561 5560 5563 5565 5566 5568
5655 5648 5642 5636 5630 5625 5621 5617 5612 5607 5603 5599 5595 5592 5589 5586 5583 5580 5577 5574 5573 5571 5570 5569 5568 5565 5563 5560 5559 5557 5558 5559 5559 5560 5559 5558 5557 5554 5555 5557 5558 5559 5561
5651 5645 5640 5633 5627 5622 5618 5612 5607 5603 5599 5596 5593 5589 5586 5583 5579 5577 5574 5572 5571 5569 5569 5568 5567 5565 5562 5559 5557 5555 5556 5556 5556 5556 5555 5553 5552 5550 5550 5551 5553 5554 5556
5648 5642 5637 5630 5624 5619 5614 5609 5605 5601 5598 5594 5590 5587 5584 5580 5578 5575 5573 5571 5569 5568 5567 5566 5565 5563 5561 5558 5556 5554 5552 5552 5552 5552 5552 5550 5548 5547 5547 5547 5548 5549 5550
5644 5639 5633 5627 5622 5618 5613 5607 5603 5600 5597 5593 5588 5585 5582 5579 5577 5574 5571 5570 5568 5567 5566 5564 5563 5562 5561 5558 5556 5553 5550 5549 5548 5548 5549 5548 5546 5545 5545 5546 5547 5547 5548
5641 5636 5631 5625 5620 5617 5613 5607 5603 5600 5596 5591 5587 5583 5580 5578 5575 5572 5570 5569 5568 5566 5566 5564 5563 5561 5561 5558 5555 5552 5550 5548 5546 5546 5546 5545 5545 5545 5546 5547 5547 5547 5548
5639 5635 5630 5624 5619 5616 5613 5608 5604 5600 5595 5590 5586 5583 5580 5578 5576 5574 5572 5570 5568 5566 5565 5564 5562 5561 5560 5557 5555 5553 5551 5548 5546 5546 5546 5546 5547 5546 5547 5548 5549 5549 5550
5639 5634 5629 5624 5619 5616 5612 5609 5604 5600 5594 5590 5587 5584 5582 5580 5577 5575 5572 5571 5568 5566 5564 5563 5563 5560 5558 5555 5551 5549 5550 5548 5545 5542 5545 5548 5549 5550 5551 5552 5553 5553 5552
5639 5634 5629 5625 5620 5616 5612 5609 5605 5601 5595 5590 5587 5586 5584 5582 5580 5578 5575 5572 5570 5567 5565 5563 5560 5559 5557 5554 5552 5550 5548 5546 5544 5543 5546 5549 5551 5553 5554 5555 5556 5556 5555